When you browse on this site, cookies collect data to enhance your experience and personalize the content and advertising you see.
Visit our Privacy Policy to learn more. By continuing to use the site, you agree to this use of cookies and data.
  • en Suisse
  • Liste des pays
  • À 7 jours
  • Température de l'eau
  • Carte satellitaire
  • Carte météo
  • Widgets météo
  • user-avatar
    Se connecter

    Météo par heure à Tolna

    Ce jour, 19 Juin, Mercredi

    Heure Température Précipitation Vent Pression Humidité
    00:00 +22°C° 1 mm 1 m/s 752 mmHg 85%
    01:00 +22°C° 0 mm 1 m/s 752 mmHg 85%
    02:00 +19°C° 0.1 mm 0 m/s 752 mmHg 85%
    03:00 +19°C° 0.1 mm 0 m/s 752 mmHg 85%
    04:00 +19°C° 0.1 mm 0 m/s 751 mmHg 86%
    05:00 +20°C° 0 mm 0 m/s 752 mmHg 83%
    06:00 +23°C° 0 mm 1 m/s 752 mmHg 81%
    07:00 +25°C° 0 mm 1 m/s 752 mmHg 76%
    08:00 +26°C° 0.5 mm 1 m/s 752 mmHg 73%
    09:00 +27°C° 0.5 mm 2 m/s 752 mmHg 71%
    10:00 +28°C° 0.5 mm 2 m/s 752 mmHg 68%
    11:00 +28°C° 0.8 mm 2 m/s 751 mmHg 65%
    12:00 +29°C° 0.8 mm 3 m/s 751 mmHg 63%
    13:00 +29°C° 0 mm 3 m/s 751 mmHg 61%
    14:00 +29°C° 1.2 mm 3 m/s 751 mmHg 63%
    15:00 +29°C° 1.2 mm 2 m/s 750 mmHg 65%
    16:00 +29°C° 1.2 mm 2 m/s 750 mmHg 67%
    17:00 +28°C° 0.5 mm 1 m/s 750 mmHg 71%
    18:00 +27°C° 0.5 mm 1 m/s 750 mmHg 74%
    19:00 +26°C° 0.5 mm 1 m/s 749 mmHg 77%
    20:00 +25°C° 1 mm 1 m/s 750 mmHg 80%
    21:00 +23°C° 1 mm 1 m/s 750 mmHg 83%
    22:00 +22°C° 1 mm 1 m/s 750 mmHg 86%
    23:00 +22°C° 0.1 mm 1 m/s 750 mmHg 86%

    Demain, 20 Juin, Jeudi

    Heure Température Précipitation Vent Pression Humidité
    00:00 +22°C° 0.1 mm 1 m/s 750 mmHg 86%
    01:00 +22°C° 0.1 mm 1 m/s 750 mmHg 86%
    02:00 +21°C° 0 mm 1 m/s 750 mmHg 87%
    03:00 +21°C° 0 mm 1 m/s 750 mmHg 87%
    04:00 +19°C° 0 mm 0 m/s 750 mmHg 88%
    05:00 +22°C° 0 mm 1 m/s 750 mmHg 84%
    06:00 +23°C° 0 mm 1 m/s 750 mmHg 81%
    07:00 +25°C° 0 mm 1 m/s 750 mmHg 78%
    08:00 +26°C° 0.4 mm 1 m/s 750 mmHg 74%
    09:00 +27°C° 0.4 mm 1 m/s 750 mmHg 70%
    10:00 +28°C° 0.4 mm 1 m/s 750 mmHg 66%
    11:00 +29°C° 0.2 mm 1 m/s 750 mmHg 63%
    12:00 +30°C° 0.2 mm 2 m/s 750 mmHg 60%
    13:00 +30°C° 0.2 mm 2 m/s 750 mmHg 57%
    14:00 +30°C° 0.3 mm 2 m/s 750 mmHg 58%
    15:00 +30°C° 0.3 mm 2 m/s 749 mmHg 60%
    16:00 +30°C° 0.3 mm 2 m/s 749 mmHg 62%
    17:00 +29°C° 0.6 mm 2 m/s 749 mmHg 67%
    18:00 +27°C° 0.6 mm 2 m/s 749 mmHg 73%
    19:00 +26°C° 0.6 mm 1 m/s 749 mmHg 78%
    20:00 +25°C° 0.1 mm 1 m/s 750 mmHg 80%
    21:00 +24°C° 0.1 mm 1 m/s 750 mmHg 81%
    22:00 +23°C° 0.1 mm 1 m/s 750 mmHg 83%
    23:00 +23°C° 0.1 mm 1 m/s 750 mmHg 84%

    Après-demain, 21 Juin, Vendredi

    Heure Température Précipitation Vent Pression Humidité
    00:00 +22°C° 0.1 mm 1 m/s 750 mmHg 85%
    01:00 +22°C° 0.1 mm 1 m/s 751 mmHg 86%
    02:00 +21°C° 0 mm 1 m/s 751 mmHg 88%
    03:00 +20°C° 0 mm 2 m/s 751 mmHg 90%
    04:00 +19°C° 0 mm 2 m/s 751 mmHg 92%
    05:00 +20°C° 0 mm 2 m/s 751 mmHg 90%
    06:00 +21°C° 0 mm 2 m/s 752 mmHg 87%
    07:00 +23°C° 0 mm 2 m/s 752 mmHg 85%
    08:00 +25°C° 0 mm 2 m/s 752 mmHg 80%
    09:00 +26°C° 0 mm 3 m/s 752 mmHg 76%
    10:00 +28°C° 0 mm 3 m/s 752 mmHg 71%
    11:00 +28°C° 0 mm 3 m/s 752 mmHg 68%
    12:00 +29°C° 0 mm 3 m/s 752 mmHg 65%
    13:00 +30°C° 0 mm 3 m/s 752 mmHg 61%
    14:00 +30°C° 0 mm 2 m/s 752 mmHg 61%
    15:00 +30°C° 0 mm 2 m/s 751 mmHg 61%
    16:00 +30°C° 0 mm 2 m/s 751 mmHg 61%
    17:00 +29°C° 0 mm 2 m/s 751 mmHg 67%
    18:00 +27°C° 0 mm 2 m/s 751 mmHg 73%
    19:00 +26°C° 0 mm 2 m/s 751 mmHg 79%
    20:00 +25°C° 0 mm 2 m/s 752 mmHg 80%
    21:00 +24°C° 0 mm 2 m/s 752 mmHg 82%
    22:00 +23°C° 0 mm 2 m/s 752 mmHg 83%
    23:00 +21°C° 0 mm 2 m/s 752 mmHg 85%

    22 Juin, Samedi

    Heure Température Précipitation Vent Pression Humidité
    00:00 +21°C° 0 mm 2 m/s 752 mmHg 86%
    01:00 +21°C° 0 mm 1 m/s 752 mmHg 88%
    02:00 +21°C° 0 mm 1 m/s 752 mmHg 89%
    03:00 +21°C° 0 mm 1 m/s 752 mmHg 90%
    04:00 +20°C° 0 mm 1 m/s 752 mmHg 91%
    05:00 +22°C° 0 mm 1 m/s 753 mmHg 86%
    06:00 +23°C° 0 mm 1 m/s 753 mmHg 82%
    07:00 +24°C° 0 mm 1 m/s 753 mmHg 77%
    08:00 +26°C° 0 mm 1 m/s 753 mmHg 73%
    09:00 +27°C° 0 mm 1 m/s 753 mmHg 68%
    10:00 +28°C° 0 mm 1 m/s 753 mmHg 63%
    11:00 +29°C° 0 mm 1 m/s 752 mmHg 60%
    12:00 +30°C° 0 mm 1 m/s 752 mmHg 57%
    13:00 +31°C° 0 mm 1 m/s 752 mmHg 54%
    14:00 +31°C° 0 mm 1 m/s 751 mmHg 53%
    15:00 +29°C° 0 mm 0 m/s 751 mmHg 53%
    16:00 +29°C° 0 mm 0 m/s 750 mmHg 52%
    17:00 +27°C° 0.2 mm 0 m/s 750 mmHg 58%
    18:00 +28°C° 0.2 mm 1 m/s 750 mmHg 64%
    19:00 +27°C° 0.2 mm 1 m/s 750 mmHg 70%
    20:00 +25°C° 1.9 mm 2 m/s 750 mmHg 77%
    21:00 +23°C° 1.9 mm 2 m/s 750 mmHg 83%
    22:00 +21°C° 1.9 mm 3 m/s 751 mmHg 90%
    23:00 +20°C° 0.5 mm 3 m/s 751 mmHg 90%

    23 Juin, Dimanche

    Heure Température Précipitation Vent Pression Humidité
    00:00 +20°C° 0.5 mm 2 m/s 750 mmHg 90%
    01:00 +21°C° 0.5 mm 1 m/s 750 mmHg 91%
    02:00 +21°C° 0.4 mm 1 m/s 750 mmHg 90%
    03:00 +21°C° 0.4 mm 1 m/s 750 mmHg 90%
    04:00 +19°C° 0.4 mm 2 m/s 750 mmHg 90%
    05:00 +21°C° 0.7 mm 1 m/s 751 mmHg 90%
    06:00 +21°C° 0.7 mm 1 m/s 751 mmHg 91%
    07:00 +21°C° 0.7 mm 1 m/s 751 mmHg 91%
    08:00 +22°C° 0.6 mm 1 m/s 751 mmHg 89%
    09:00 +23°C° 0.6 mm 1 m/s 752 mmHg 88%
    10:00 +24°C° 0.6 mm 1 m/s 752 mmHg 86%
    11:00 +25°C° 1 mm 2 m/s 752 mmHg 83%
    12:00 +25°C° 1 mm 2 m/s 751 mmHg 79%
    13:00 +26°C° 1 mm 2 m/s 751 mmHg 76%
    14:00 +26°C° 2.1 mm 2 m/s 751 mmHg 76%
    15:00 +26°C° 2.1 mm 2 m/s 751 mmHg 77%
    16:00 +26°C° 2.1 mm 2 m/s 751 mmHg 78%
    17:00 +25°C° 0.7 mm 2 m/s 751 mmHg 80%
    18:00 +25°C° 0.7 mm 2 m/s 752 mmHg 83%
    19:00 +24°C° 0.7 mm 2 m/s 752 mmHg 85%
    20:00 +22°C° 0.5 mm 3 m/s 752 mmHg 88%
    21:00 +21°C° 0.5 mm 4 m/s 753 mmHg 90%
    22:00 +20°C° 0.5 mm 5 m/s 753 mmHg 93%
    23:00 +20°C° 0.3 mm 4 m/s 753 mmHg 93%

    24 Juin, Lundi

    Heure Température Précipitation Vent Pression Humidité
    00:00 +19°C° 0.3 mm 3 m/s 754 mmHg 93%
    01:00 +19°C° 0.3 mm 3 m/s 754 mmHg 94%
    02:00 +19°C° 0 mm 3 m/s 754 mmHg 94%
    03:00 +19°C° 0 mm 3 m/s 754 mmHg 94%
    04:00 +18°C° 0 mm 3 m/s 755 mmHg 94%
    05:00 +19°C° 0 mm 3 m/s 755 mmHg 92%
    06:00 +20°C° 0 mm 4 m/s 755 mmHg 90%
    07:00 +21°C° 0 mm 4 m/s 756 mmHg 88%
    08:00 +23°C° 0 mm 4 m/s 756 mmHg 83%
    09:00 +25°C° 0 mm 4 m/s 756 mmHg 78%
    10:00 +26°C° 0 mm 4 m/s 756 mmHg 73%
    11:00 +27°C° 0 mm 4 m/s 756 mmHg 71%
    12:00 +28°C° 0 mm 4 m/s 756 mmHg 70%
    13:00 +28°C° 0 mm 4 m/s 755 mmHg 68%
    14:00 +28°C° 0.3 mm 4 m/s 755 mmHg 69%
    15:00 +28°C° 0.3 mm 4 m/s 755 mmHg 71%
    16:00 +28°C° 0.3 mm 4 m/s 755 mmHg 72%
    17:00 +27°C° 0.3 mm 3 m/s 755 mmHg 76%
    18:00 +26°C° 0.3 mm 3 m/s 756 mmHg 81%
    19:00 +25°C° 0.3 mm 3 m/s 756 mmHg 85%
    20:00 +24°C° 0 mm 3 m/s 756 mmHg 87%
    21:00 +22°C° 0 mm 3 m/s 756 mmHg 90%
    22:00 +21°C° 0 mm 2 m/s 757 mmHg 92%
    23:00 +21°C° 0 mm 2 m/s 757 mmHg 91%
    Voir plus